Lorentz, WV

12:02 AM EDT on August 27, 2016 (GMT -0400)
Buckhannon

Weather History for KW22 - October, 2013

Change the Weather History Date:

Wednesday, October 23, 2013

  Actual Average (KEKN) Record (KEKN)
Temperature  
Mean Temperature 38 °F 49 °F  
Max Temperature 41 °F 62 °F 80 °F (1947)
Min Temperature 35 °F 36 °F 15 °F (1974)
Degree Days  
Heating Degree Days 27 16  
Month to date heating degree days 292  
Since 1 July heating degree days 452  
Cooling Degree Days 0 0  
Month to date cooling degree days 0  
Year to date cooling degree days 471  
Moisture  
Dew Point 37 °F    
Average Humidity 100    
Maximum Humidity 100    
Minimum Humidity 93    
Precipitation  
Precipitation 0.11 in 0.10 in 1.95 in (1959)
Month to date precipitation 2.08  
Year to date precipitation 38.52  
Snow  
Snow 0.00 in - - ()
Month to date snowfall  
Since 1 September snowfall  
Snow Depth -    
Sea Level Pressure  
Sea Level Pressure 29.83 in    
Wind  
Wind Speed 3 mph (West)    
Max Wind Speed 14 mph    
Max Gust Speed 20 mph    
Visibility 7 miles    
Events Rain    
T = Trace of Precipitation, MM = Missing Value Source: NWS Daily Summary

Daily Weather History Graph

Daily Weather History Graph

Search for Another Location

Airport or City:

Trip Planner

Search our weather history database for the weather conditions in past years. The results will help you decide how hot, cold, wet, or windy it might be!

Date:

Astronomy

Oct. 23, 2013 Rise Set
Actual Time 7:39 AM EDT 6:31 PM EDT
Civil Twilight 7:11 AM EDT 6:58 PM EDT
Nautical Twilight 6:40 AM EDT 7:29 PM EDT
Astronomical Twilight 6:09 AM EDT 8:00 PM EDT
Moon 10:02 PM EDT (10/23) 11:53 AM EDT (10/23)
Length of Visible Light 11h 46m
Length of Day
10h 52m
Waning Gibbous, 79% of the Moon is Illuminated
Oct 23
Waning Gibbous
Oct 26
Last Quarter
Nov 3
New
Nov 10
First Quarter
Nov 17
Full

Hourly Weather History & Observations

Time (EDT) Temp. Windchill Dew Point Humidity Pressure Visibility Wind Dir Wind Speed Gust Speed Precip Events Conditions
12:15 AM 37.4 °F - 35.6 °F 93% 29.87 in 10.0 mi Calm Calm - N/A   Clear
12:35 AM 37.4 °F - 35.6 °F 93% 29.86 in 10.0 mi Calm Calm - N/A   Clear
12:55 AM 35.6 °F - 35.6 °F 100% 29.85 in 10.0 mi Calm Calm - N/A   Clear
1:15 AM 35.6 °F - 35.6 °F 100% 29.85 in 10.0 mi Calm Calm - N/A   Clear
1:35 AM 35.6 °F - 35.6 °F 100% 29.84 in 10.0 mi Calm Calm - N/A   Clear
1:55 AM 35.6 °F - 35.6 °F 100% 29.83 in 10.0 mi Calm Calm - N/A   Clear
2:15 AM 35.6 °F - 35.6 °F 100% 29.83 in 10.0 mi Calm Calm - N/A   Partly Cloudy
2:35 AM 35.6 °F - 35.6 °F 100% 29.83 in 10.0 mi Calm Calm - N/A   Clear
2:55 AM 35.6 °F - 35.6 °F 100% 29.82 in 9.0 mi Calm Calm - N/A   Clear
3:15 AM 35.6 °F - 35.6 °F 100% 29.81 in 10.0 mi Calm Calm - N/A   Clear
3:35 AM 35.6 °F - 35.6 °F 100% 29.80 in 8.0 mi Calm Calm - N/A   Clear
3:55 AM 35.6 °F - 35.6 °F 100% 29.78 in 5.0 mi Calm Calm - N/A   Clear
4:15 AM 35.6 °F - 35.6 °F 100% 29.78 in 10.0 mi Calm Calm - N/A   Clear
4:35 AM 35.6 °F - 35.6 °F 100% 29.78 in 10.0 mi Calm Calm - N/A   Clear
4:55 AM 35.6 °F - 35.6 °F 100% 29.77 in 9.0 mi Calm Calm - N/A   Scattered Clouds
5:15 AM 35.6 °F - 35.6 °F 100% 29.77 in 10.0 mi Calm Calm - N/A   Scattered Clouds
5:35 AM 35.6 °F - 35.6 °F 100% 29.77 in 10.0 mi Calm Calm - N/A   Partly Cloudy
5:55 AM 35.6 °F - 35.6 °F 100% 29.76 in 5.0 mi Calm Calm - N/A   Mostly Cloudy
6:15 AM 35.6 °F - 35.6 °F 100% 29.77 in 9.0 mi Calm Calm - N/A   Mostly Cloudy
6:35 AM 35.6 °F - 35.6 °F 100% 29.77 in 5.0 mi Calm Calm - N/A   Mostly Cloudy
6:55 AM 37.4 °F - 37.4 °F 100% 29.76 in 8.0 mi Calm Calm - N/A   Scattered Clouds
7:15 AM 37.4 °F - 37.4 °F 100% 29.76 in 1.2 mi Calm Calm - 0.01 in Rain Light Rain
7:35 AM 37.4 °F - 37.4 °F 100% 29.75 in 1.5 mi Calm Calm - 0.01 in Rain Light Rain
7:55 AM 37.4 °F - 37.4 °F 100% 29.74 in 3.0 mi Calm Calm - 0.01 in   Scattered Clouds
8:15 AM 37.4 °F - 37.4 °F 100% 29.75 in 2.5 mi Calm Calm - N/A   Mostly Cloudy
8:35 AM 37.4 °F - 37.4 °F 100% 29.75 in 1.8 mi Calm Calm - N/A   Overcast
8:55 AM 37.4 °F - 37.4 °F 100% 29.75 in 3.0 mi Calm Calm - N/A   Mostly Cloudy
9:15 AM 37.4 °F - 37.4 °F 100% 29.76 in 5.0 mi Calm Calm - N/A   Scattered Clouds
9:35 AM 37.4 °F - 37.4 °F 100% 29.76 in 5.0 mi Calm Calm - N/A   Mostly Cloudy
9:55 AM 37.4 °F - 37.4 °F 100% 29.75 in 3.0 mi Calm Calm - N/A Rain Light Rain
10:15 AM 37.4 °F - 37.4 °F 100% 29.76 in 3.0 mi Calm Calm - N/A Rain Light Rain
10:35 AM 39.2 °F - 39.2 °F 100% 29.75 in 4.0 mi Calm Calm - 0.01 in   Light Drizzle
10:55 AM 39.2 °F - 39.2 °F 100% 29.74 in 5.0 mi Calm Calm - 0.01 in Rain Light Rain
11:15 AM 39.2 °F - 39.2 °F 100% 29.74 in 5.0 mi Calm Calm - N/A   Mostly Cloudy
11:35 AM 39.2 °F - 39.2 °F 100% 29.74 in 5.0 mi Calm Calm - N/A Rain Light Rain
11:55 AM 39.2 °F - 39.2 °F 100% 29.74 in 1.8 mi Calm Calm - 0.02 in Rain Light Rain
12:15 PM 39.2 °F - 39.2 °F 100% 29.74 in 3.0 mi Calm Calm - N/A   Light Drizzle
12:35 PM 41.0 °F 38.0 °F 41.0 °F 100% 29.74 in 2.5 mi West 4.6 mph - 0.01 in Rain Light Rain
12:55 PM 39.2 °F 33.6 °F 39.2 °F 100% 29.75 in 4.0 mi NW 8.1 mph - 0.03 in Rain Light Rain
1:15 PM 39.2 °F 33.0 °F 39.2 °F 100% 29.76 in 5.0 mi NNW 9.2 mph - N/A   Light Drizzle
1:35 PM 39.2 °F 32.5 °F 39.2 °F 100% 29.76 in 4.0 mi NNW 10.4 mph - N/A   Overcast
1:55 PM 37.4 °F 30.8 °F 37.4 °F 100% 29.77 in 7.0 mi North 9.2 mph 17.3 mph N/A   Overcast
2:15 PM 37.4 °F 32.1 °F 37.4 °F 100% 29.78 in 3.0 mi NNW 6.9 mph - N/A   Overcast
2:35 PM 37.4 °F 32.8 °F 37.4 °F 100% 29.79 in 5.0 mi NNW 5.8 mph - N/A   Light Drizzle
2:55 PM 37.4 °F 31.4 °F 37.4 °F 100% 29.80 in 10.0 mi NW 8.1 mph - N/A   Overcast
3:15 PM 37.4 °F 29.8 °F 37.4 °F 100% 29.81 in 10.0 mi NW 11.5 mph - N/A   Overcast
3:35 PM 37.4 °F 30.8 °F 37.4 °F 100% 29.82 in 10.0 mi WNW 9.2 mph - N/A   Overcast
3:55 PM 37.4 °F - 37.4 °F 100% 29.83 in 10.0 mi Calm Calm - N/A   Overcast
4:15 PM 37.4 °F 32.8 °F 37.4 °F 100% 29.85 in 10.0 mi WNW 5.8 mph 16.1 mph N/A   Light Drizzle
4:35 PM 37.4 °F 32.1 °F 37.4 °F 100% 29.86 in 10.0 mi West 6.9 mph - N/A Rain Light Rain
4:55 PM 37.4 °F 30.3 °F 37.4 °F 100% 29.86 in 5.0 mi West 10.4 mph - N/A   Overcast
5:15 PM 37.4 °F 30.8 °F 37.4 °F 100% 29.87 in 2.5 mi West 9.2 mph - N/A   Overcast
5:35 PM 37.4 °F 31.4 °F 37.4 °F 100% 29.88 in 3.0 mi West 8.1 mph - 0.02 in Rain Light Rain
5:55 PM 37.4 °F 30.3 °F 37.4 °F 100% 29.89 in 3.0 mi WSW 10.4 mph - 0.02 in Rain Light Rain
6:15 PM 35.6 °F 27.5 °F 35.6 °F 100% 29.90 in 4.0 mi WSW 11.5 mph - N/A Rain Light Rain
6:35 PM 35.6 °F 27.1 °F 35.6 °F 100% 29.91 in 3.0 mi West 12.7 mph 18.4 mph 0.01 in Rain Light Rain
6:55 PM 35.6 °F 28.0 °F 35.6 °F 100% 29.92 in 10.0 mi West 10.4 mph 16.1 mph 0.01 in Rain Light Rain
7:15 PM 35.6 °F 27.1 °F 35.6 °F 100% 29.94 in 5.0 mi West 12.7 mph 17.3 mph N/A Rain Rain
7:35 PM 35.6 °F 27.1 °F 35.6 °F 100% 29.94 in 9.0 mi West 12.7 mph 16.1 mph 0.01 in Rain Light Rain
7:55 PM 35.6 °F 27.5 °F 35.6 °F 100% 29.96 in 9.0 mi West 11.5 mph - 0.01 in Rain Light Rain
8:15 PM 35.6 °F 29.9 °F 35.6 °F 100% 29.96 in 10.0 mi West 6.9 mph 16.1 mph N/A   Mostly Cloudy
8:35 PM 35.6 °F 30.7 °F 35.6 °F 100% 29.97 in 10.0 mi WSW 5.8 mph - N/A   Scattered Clouds
8:55 PM 35.6 °F 30.7 °F 35.6 °F 100% 29.97 in 10.0 mi WSW 5.8 mph - N/A   Mostly Cloudy
9:15 PM 35.6 °F 29.9 °F 35.6 °F 100% 29.98 in 10.0 mi WSW 6.9 mph - N/A   Overcast
9:35 PM 35.6 °F 28.6 °F 35.6 °F 100% 29.98 in 10.0 mi WSW 9.2 mph - N/A   Overcast
9:55 PM 35.6 °F 26.6 °F 35.6 °F 100% 29.98 in 10.0 mi WSW 13.8 mph 18.4 mph N/A   Overcast
10:15 PM 35.6 °F 28.0 °F 35.6 °F 100% 29.98 in 10.0 mi WSW 10.4 mph 19.6 mph N/A   Mostly Cloudy
10:35 PM 35.6 °F 28.0 °F 35.6 °F 100% 29.99 in 10.0 mi WSW 10.4 mph - N/A   Mostly Cloudy
10:55 PM 35.6 °F 28.0 °F 35.6 °F 100% 29.99 in 10.0 mi WSW 10.4 mph - N/A   Mostly Cloudy
11:15 PM 35.6 °F 29.2 °F 35.6 °F 100% 29.99 in 10.0 mi WSW 8.1 mph - N/A   Mostly Cloudy
11:35 PM 35.6 °F 27.5 °F 35.6 °F 100% 29.99 in 10.0 mi WSW 11.5 mph - N/A   Overcast
11:55 PM 35.6 °F 29.2 °F 35.6 °F 100% 29.98 in 10.0 mi SW 8.1 mph - N/A   Mostly Cloudy